This is the latest recevied weather packets stored in our database for station/object YO6SAY-10. If no packets are shown the sender has not sent any weather packets the latest 10 day(s).
| Time | Temp. | Humidity | Pressure | Rain* | Wind** | Luminosity | Snow |
|---|---|---|---|---|---|---|---|
| 1777412607 | 15° C | 39% | 951.5 hPa | - | - | - | - |
| 1777411707 | 15.56° C | 39% | 951.3 hPa | - | - | - | - |
| 1777410807 | 15.56° C | 38% | 951.3 hPa | - | - | - | - |
| 1777409906 | 15.56° C | 38% | 951.3 hPa | - | - | - | - |
| 1777409005 | 15.56° C | 38% | 951.2 hPa | - | - | - | - |
| 1777408105 | 15.56° C | 38% | 951.2 hPa | - | - | - | - |
| 1777407205 | 16.11° C | 37% | 951.2 hPa | - | - | - | - |
| 1777406305 | 16.11° C | 37% | 951.2 hPa | - | - | - | - |
| 1777405405 | 16.11° C | 37% | 951.2 hPa | - | - | - | - |
| 1777404505 | 16.11° C | 36% | 951.2 hPa | - | - | - | - |
| 1777403604 | 16.67° C | 36% | 951.1 hPa | - | - | - | - |
| 1777402704 | 16.67° C | 35% | 951.1 hPa | - | - | - | - |
| 1777401804 | 16.67° C | 34% | 950.9 hPa | - | - | - | - |
| 1777400904 | 17.22° C | 34% | 950.9 hPa | - | - | - | - |
| 1777400004 | 17.22° C | 33% | 950.7 hPa | - | - | - | - |
| 1777399103 | 17.78° C | 33% | 950.6 hPa | - | - | - | - |
| 1777398203 | 17.78° C | 32% | 950.5 hPa | - | - | - | - |
| 1777397302 | 18.33° C | 32% | 950.2 hPa | - | - | - | - |
| 1777396402 | 18.89° C | 31% | 950.1 hPa | - | - | - | - |
| 1777395502 | 18.89° C | 30% | 950 hPa | - | - | - | - |
| 1777394602 | 19.44° C | 30% | 950 hPa | - | - | - | - |
| 1777393702 | 20.56° C | 29% | 949.9 hPa | - | - | - | - |
| 1777392802 | 21.11° C | 29% | 949.8 hPa | - | - | - | - |
| 1777391901 | 21.67° C | 29% | 949.8 hPa | - | - | - | - |
| 1777391001 | 23.33° C | 28% | 949.8 hPa | - | - | - | - |
* Rain since midnight (hover to see other rain measurements)
** Current wind speed in m/s (hover to see current wind gust speed)